Wind_Speed
29 28 28 28 29 29 26 23 23 23 23 22 22 21 21 20 21 21 18 17 16 16 16 16 16 15 15 14 14 13 12 11 11 11 10 10 9 8 7 7 7 6 6 6 6 5 5 4 5
30 31 31 31 31 30 27 25 26 25 25 24 23 23 23 23 23 22 21 20 19 19 18 18 17 17 17 16 16 15 14 13 13 12 12 11 10 10 9 9 8 8 7 7 7 7 6 6 6
32 33 34 33 33 31 28 27 28 28 27 26 24 24 26 25 26 24 23 22 22 21 21 20 20 19 19 18 17 17 16 16 15 14 14 13 12 12 11 10 9 9 9 9 8 8 8 8 8
35 35 37 36 34 32 31 30 30 30 29 29 27 27 27 26 27 26 25 25 24 23 23 22 22 21 21 20 19 19 18 18 17 17 16 15 14 13 12 12 11 10 10 10 10 10 10 10 10
37 38 38 39 36 34 33 33 33 32 32 31 30 30 29 28 28 27 28 27 26 26 25 25 24 24 23 22 22 21 21 20 19 18 18 17 16 15 14 13 13 12 12 12 11 11 12 11 11
38 39 40 40 38 36 35 36 36 35 34 34 33 32 31 31 30 29 29 30 29 28 28 28 27 26 25 25 24 24 23 22 21 20 20 19 18 17 16 15 15 14 13 13 13 13 13 13 13
38 39 39 39 38 37 37 38 38 37 37 36 35 35 33 33 32 32 32 32 32 31 30 30 30 29 28 27 27 26 26 25 23 22 22 21 20 19 18 17 17 16 15 15 15 15 15 15 15
39 40 40 39 38 38 38 39 40 39 39 37 37 36 35 34 34 34 33 33 33 33 32 32 32 31 30 30 30 29 28 27 25 25 24 23 22 21 20 19 18 18 18 17 17 17 17 17 17
39 41 41 39 40 39 39 40 41 42 41 40 40 38 36 36 35 35 35 35 34 34 34 34 33 33 32 32 31 31 30 29 27 27 26 25 24 23 23 22 21 20 20 20 19 19 19 19 19
39 41 39 39 40 40 41 41 42 43 43 42 42 40 38 37 37 37 36 36 36 35 35 36 35 34 33 33 32 31 30 29 29 28 28 28 27 26 25 24 24 23 22 22 22 21 22 21 21
39 39 37 38 40 41 42 41 42 43 44 43 44 43 41 39 39 38 38 37 37 37 36 36 36 35 34 33 32 32 31 30 30 30 29 29 28 28 27 26 25 25 25 24 24 23 23 23 23
39 38 39 40 40 41 42 42 41 42 43 45 46 45 43 41 40 40 40 39 38 37 37 36 36 35 34 33 33 33 32 32 31 31 30 30 30 30 29 28 27 27 26 26 26 25 24 24 25
40 40 40 41 41 41 42 42 43 42 44 45 46 46 45 43 42 41 41 40 40 39 38 37 37 37 36 35 34 34 34 33 32 31 31 32 32 31 30 30 29 28 28 28 27 27 27 26 26
39 42 42 42 42 42 42 42 44 42 43 44 45 45 45 44 43 42 41 41 41 40 39 38 38 38 37 35 35 34 34 34 33 33 33 33 32 32 32 31 31 30 29 29 29 29 29 29 28
40 41 42 42 41 41 42 42 42 42 43 43 44 44 45 46 45 43 43 42 41 40 40 40 40 39 38 36 35 35 35 35 34 34 34 34 33 33 33 32 32 32 31 31 31 31 30 31 31
39 41 41 41 40 40 41 41 40 42 44 44 44 44 45 45 45 44 43 43 43 42 41 41 41 40 39 38 37 37 36 35 35 35 35 34 34 34 34 33 33 33 33 33 33 32 32 32 32
38 39 40 40 39 40 41 40 39 42 44 45 45 44 44 44 44 44 43 43 43 43 42 42 42 41 40 39 38 38 37 37 36 36 35 35 35 35 35 34 34 35 34 34 35 34 33 34 34
36 38 39 39 40 40 41 40 39 40 42 43 44 45 44 44 44 44 44 43 44 44 43 43 43 42 42 40 40 39 38 38 37 37 36 35 35 35 36 36 36 36 36 36 36 35 35 35 35
34 36 37 37 37 39 39 39 38 38 39 40 42 43 43 42 43 44 44 43 44 44 43 43 43 43 42 42 41 40 39 38 38 37 37 36 36 36 37 37 36 36 37 37 37 37 36 36 37
33 34 34 36 36 37 37 38 37 37 37 39 40 41 41 42 43 43 42 43 43 43 43 43 43 43 42 42 42 42 40 40 39 38 37 37 38 37 37 37 36 37 37 38 38 39 39 39 38
31 31 31 33 34 34 36 37 36 35 36 36 38 39 40 40 41 41 41 42 42 42 42 43 42 42 42 43 43 42 41 41 40 39 39 38 39 39 38 38 38 38 38 39 40 40 40 40 40
29 29 30 30 31 32 33 35 32 32 34 35 35 36 37 39 39 40 40 40 40 40 41 42 42 43 42 41 41 43 42 41 41 41 40 40 40 39 40 40 40 40 40 40 41 41 41 41 41
26 27 29 29 30 30 31 34 31 30 31 33 32 33 34 36 37 38 38 38 38 38 39 40 41 42 42 41 41 42 42 42 42 42 41 40 40 41 41 42 42 41 40 41 42 42 42 42 43
23 24 26 27 28 29 29 32 31 30 29 29 30 30 31 34 35 35 35 35 36 37 38 40 40 42 42 42 42 41 42 42 42 42 43 43 41 41 41 42 42 41 41 42 43 43 44 44 43
23 24 24 25 26 28 27 30 29 28 27 27 28 29 29 32 33 34 34 34 35 36 37 38 39 42 42 42 42 41 41 41 41 42 43 44 43 42 43 43 43 43 43 43 44 44 44 44 44
23 24 24 25 26 26 25 27 27 26 26 26 27 28 28 30 31 32 33 33 34 36 37 37 39 41 41 41 42 42 42 42 41 42 43 43 44 44 43 44 45 46 45 44 44 44 44 44 45
23 24 24 26 26 26 26 25 25 24 24 24 25 26 27 29 31 31 32 32 33 35 37 37 38 39 40 41 42 43 42 42 42 42 43 44 44 44 43 44 44 44 45 45 46 45 46 47 46
22 23 24 25 25 25 24 24 23 22 21 22 23 24 26 28 30 30 31 32 33 34 35 37 38 38 39 41 42 43 43 42 43 44 44 45 44 44 44 45 45 45 45 46 47 48 47 47 47
21 21 23 26 26 26 25 25 23 24 23 22 23 24 25 26 29 30 31 32 33 34 35 37 38 39 39 40 41 42 42 41 42 43 44 44 44 44 44 44 45 45 45 46 46 47 46 46 45
20 21 21 23 25 26 26 24 22 23 24 24 25 24 23 25 28 29 30 32 33 34 35 36 37 38 38 39 40 41 41 42 42 42 42 43 43 43 43 43 44 43 43 43 45 45 45 45 45
Wind_Direction
248 248 247 247 248 249 249 250 250 248 247 247 247 247 247 247 248 249 250 248 244 243 244 246 246 247 247 247 246 244 243 245 246 248 247 250 251 252 250 248 246 245 249 256 262 267 270 278 291
248 248 247 246 248 250 250 251 252 251 249 248 248 247 246 246 248 249 250 249 247 246 245 246 246 248 249 249 248 246 245 246 248 249 249 250 251 250 249 249 249 250 253 258 261 264 271 278 286
247 247 247 247 247 250 251 250 252 251 250 249 248 246 246 247 248 248 250 249 247 247 247 248 247 248 249 250 249 248 247 247 248 249 250 250 251 250 249 250 252 254 256 258 261 264 270 277 283
248 246 247 248 248 250 250 250 251 251 250 249 249 247 248 248 249 249 249 249 248 247 248 250 249 249 250 250 250 248 247 248 249 249 250 249 249 249 248 249 253 255 258 261 264 267 269 274 278
248 246 247 248 248 249 249 250 249 249 250 249 248 248 248 248 248 249 249 250 249 249 249 250 250 249 250 250 250 250 248 248 249 249 248 249 248 248 249 251 253 256 258 262 266 268 268 270 274
249 248 248 250 250 250 249 250 250 249 249 250 249 248 249 249 249 249 250 250 250 250 249 249 249 249 249 250 250 249 249 248 248 248 247 247 247 247 249 252 253 256 260 261 264 266 267 270 272
250 249 250 251 250 250 249 249 250 250 250 251 250 250 250 250 250 250 250 251 251 251 250 250 248 249 249 250 250 250 249 249 247 247 246 245 245 247 250 252 254 257 260 261 263 266 268 270 272
251 250 251 251 250 251 249 249 250 250 251 251 251 251 251 251 251 251 251 251 250 250 251 251 249 248 249 249 249 249 248 247 246 246 245 245 245 247 249 252 254 256 259 261 263 266 268 271 273
251 250 251 251 251 252 251 250 249 250 251 251 252 252 252 252 252 252 250 249 249 249 249 250 250 249 249 249 248 248 247 245 245 245 246 246 246 247 248 251 254 256 259 262 263 266 268 271 274
252 252 253 253 252 252 250 250 250 250 250 251 252 252 252 252 252 251 250 249 248 249 248 248 249 248 248 248 247 247 246 245 244 245 246 246 247 248 249 251 254 257 260 262 264 267 269 271 273
252 253 253 252 252 253 251 250 251 252 252 251 252 252 251 250 250 251 251 249 249 249 249 249 248 247 247 248 248 248 247 246 245 246 246 246 247 248 249 251 254 257 260 262 265 267 268 270 272
252 254 255 254 254 254 253 252 252 253 253 252 252 252 252 251 250 250 250 249 248 249 248 248 247 245 246 248 248 248 248 247 248 248 247 247 248 249 249 252 254 256 259 262 264 266 269 270 271
254 254 256 256 255 256 255 254 253 253 254 254 254 253 252 251 249 249 249 249 248 247 247 247 246 245 245 246 248 248 248 248 248 248 249 249 249 249 251 252 254 255 258 262 264 266 268 271 273
254 255 256 257 256 257 257 256 255 254 255 254 253 253 253 251 248 248 248 248 247 246 245 243 243 245 245 245 246 247 247 248 248 248 249 250 251 251 251 252 253 256 259 261 263 266 268 270 273
256 256 256 257 258 257 258 257 257 255 254 254 253 255 253 250 248 248 247 247 246 245 243 241 242 244 245 244 245 247 248 248 248 249 250 250 251 252 252 252 254 256 258 261 263 265 268 271 274
257 256 257 257 258 257 258 258 258 256 254 254 254 255 253 250 248 247 247 246 244 243 242 241 242 243 244 244 245 247 248 249 249 249 250 251 252 253 254 255 255 256 258 259 263 266 269 272 274
258 257 258 259 258 257 258 259 259 257 255 253 254 254 252 249 247 246 245 244 243 243 242 241 242 243 244 244 245 247 248 249 249 249 250 250 251 252 254 254 256 256 257 260 262 266 270 272 273
261 260 260 260 260 258 258 259 259 258 255 253 253 253 252 249 247 246 244 243 243 243 243 243 242 242 242 243 245 246 248 248 248 249 250 250 250 252 253 254 256 257 258 260 262 265 268 271 274
262 261 262 261 259 259 258 258 259 258 256 253 252 252 252 248 247 247 245 243 243 242 242 241 241 242 242 242 244 245 248 248 247 249 250 250 251 252 253 254 255 257 260 261 262 264 267 271 274
262 262 261 261 260 260 260 259 260 260 257 255 253 253 253 248 246 246 245 243 241 241 240 241 241 241 241 241 243 245 247 248 248 249 251 252 253 253 254 254 255 257 260 262 263 265 267 270 274
260 261 261 262 263 262 264 262 260 259 258 255 254 253 253 249 245 244 245 243 240 239 239 239 239 239 239 241 243 244 246 247 248 249 251 253 254 254 254 255 256 258 262 263 264 265 267 270 273
261 259 260 263 264 263 264 267 261 261 258 255 253 252 251 248 246 245 243 241 239 238 239 238 238 238 239 241 243 244 246 247 248 250 251 253 254 256 257 256 257 259 263 264 265 266 268 271 274
262 260 261 263 264 265 264 268 264 261 259 256 255 252 251 248 246 243 241 240 238 238 238 238 238 238 238 241 243 244 246 247 248 249 251 252 253 256 258 260 261 261 264 266 266 267 269 272 274
266 262 261 263 265 267 266 268 266 262 262 261 257 253 252 249 245 242 240 239 239 237 236 237 237 237 238 241 244 245 246 247 249 250 251 252 255 258 259 261 261 262 265 267 268 268 271 273 274
264 262 263 265 264 266 267 266 264 263 262 263 260 255 254 251 246 244 240 239 238 237 237 237 239 238 239 242 244 246 247 248 250 251 251 252 255 257 258 261 261 265 267 268 269 270 271 272 274
262 262 262 265 266 266 267 265 265 264 264 263 259 254 253 250 248 246 242 239 238 237 238 240 240 240 242 244 245 248 248 248 249 251 251 252 255 258 260 261 263 265 266 268 270 272 273 273 275
265 265 265 266 269 272 268 265 267 266 261 257 256 254 252 249 247 246 242 239 238 239 240 243 243 244 244 245 247 248 250 249 250 252 253 254 256 258 259 261 263 264 267 269 272 274 274 274 275
267 266 264 264 269 271 269 266 268 267 261 260 257 254 252 248 248 247 244 241 240 241 242 244 246 247 247 246 248 250 252 252 253 254 254 255 257 257 260 262 264 265 267 270 273 274 274 274 275
268 267 265 266 266 269 272 269 270 269 265 263 257 254 250 248 247 248 245 244 244 244 245 247 247 249 249 250 252 252 253 253 253 255 255 257 259 260 261 264 267 268 269 271 273 274 275 275 276
267 266 264 265 264 267 273 272 268 267 267 266 261 256 251 248 247 248 248 246 246 246 248 250 250 251 252 253 255 255 255 255 255 254 256 259 261 262 263 266 268 269 270 271 273 275 276 277 277
Height
5814 5815 5817 5818 5820 5821 5824 5828 5829 5831 5833 5834 5836 5837 5839 5840 5841 5844 5844 5844 5846 5847 5848 5849 5850 5850 5851 5852 5852 5853 5854 5854 5855 5855 5856 5856 5857 5857 5858 5858 5859 5859 5859 5859 5860 5860 5860 5859 5859
5808 5809 5811 5812 5813 5815 5820 5823 5824 5826 5828 5830 5832 5834 5835 5835 5837 5838 5840 5841 5842 5844 5845 5845 5847 5848 5848 5849 5850 5850 5851 5852 5852 5853 5854 5854 5855 5855 5856 5857 5857 5858 5858 5858 5858 5858 5858 5858 5858
5801 5802 5804 5805 5807 5811 5815 5818 5819 5821 5823 5826 5827 5829 5830 5832 5833 5834 5836 5837 5839 5840 5841 5842 5843 5844 5845 5846 5847 5848 5848 5849 5850 5851 5851 5852 5853 5853 5854 5854 5855 5856 5856 5856 5857 5857 5857 5857 5857
5794 5795 5797 5799 5802 5806 5809 5812 5813 5815 5817 5820 5822 5824 5825 5827 5828 5830 5831 5833 5834 5836 5837 5838 5839 5840 5841 5843 5844 5844 5845 5846 5847 5847 5848 5849 5850 5851 5852 5852 5853 5853 5854 5854 5855 5855 5855 5855 5855
5785 5787 5789 5791 5796 5800 5802 5804 5806 5808 5811 5813 5815 5817 5819 5821 5823 5825 5826 5828 5830 5831 5832 5834 5835 5836 5837 5838 5839 5840 5841 5842 5843 5844 5845 5846 5847 5848 5849 5850 5850 5851 5851 5852 5852 5852 5852 5853 5853
5776 5778 5781 5783 5789 5792 5795 5797 5799 5801 5804 5806 5808 5810 5813 5815 5817 5819 5821 5822 5824 5825 5827 5828 5830 5831 5832 5833 5834 5836 5837 5838 5839 5840 5841 5842 5843 5845 5846 5846 5847 5848 5849 5849 5849 5850 5850 5850 5850
5767 5769 5772 5776 5780 5783 5787 5788 5791 5794 5796 5799 5801 5803 5806 5809 5811 5812 5814 5816 5817 5819 5821 5822 5824 5825 5827 5828 5829 5830 5831 5833 5834 5835 5837 5838 5840 5841 5842 5843 5844 5845 5846 5846 5846 5847 5847 5847 5847
5759 5761 5764 5767 5771 5775 5777 5779 5783 5785 5788 5791 5793 5796 5799 5801 5803 5806 5807 5809 5811 5813 5814 5816 5818 5819 5821 5822 5823 5824 5826 5827 5829 5830 5832 5833 5835 5836 5838 5839 5840 5841 5842 5842 5843 5843 5844 5843 5843
5750 5753 5756 5760 5763 5766 5768 5771 5774 5776 5779 5782 5785 5788 5791 5793 5795 5798 5800 5802 5804 5806 5808 5809 5811 5812 5814 5815 5816 5818 5819 5821 5823 5825 5826 5828 5830 5832 5833 5834 5836 5837 5838 5838 5839 5839 5840 5840 5839
5741 5744 5749 5753 5754 5756 5758 5761 5764 5767 5770 5773 5775 5779 5782 5784 5787 5789 5791 5794 5796 5798 5800 5801 5803 5805 5806 5808 5809 5811 5813 5815 5817 5819 5820 5822 5824 5826 5828 5829 5831 5832 5833 5834 5834 5835 5835 5835 5835
5733 5737 5741 5743 5744 5746 5748 5751 5754 5756 5760 5762 5765 5769 5772 5775 5778 5780 5782 5785 5787 5789 5791 5793 5794 5797 5799 5800 5802 5804 5806 5808 5810 5812 5814 5816 5818 5820 5822 5824 5825 5827 5828 5829 5829 5830 5830 5830 5830
5726 5729 5731 5733 5735 5736 5738 5741 5744 5746 5750 5751 5754 5758 5761 5764 5768 5770 5772 5775 5777 5780 5782 5784 5786 5789 5791 5793 5795 5797 5800 5802 5804 5806 5808 5810 5812 5814 5816 5818 5819 5821 5822 5823 5824 5824 5825 5825 5825
5716 5719 5721 5724 5725 5727 5728 5731 5734 5737 5739 5741 5743 5747 5750 5753 5756 5759 5762 5765 5767 5770 5773 5775 5778 5780 5783 5786 5788 5790 5793 5795 5797 5799 5801 5803 5805 5807 5809 5811 5813 5814 5816 5817 5818 5819 5819 5820 5820
5707 5709 5711 5713 5715 5716 5718 5721 5722 5727 5728 5730 5732 5735 5738 5741 5745 5748 5751 5754 5757 5760 5763 5766 5769 5772 5775 5778 5780 5783 5785 5788 5790 5792 5794 5795 5798 5800 5802 5804 5806 5808 5809 5811 5812 5813 5813 5813 5814
5697 5699 5701 5703 5704 5706 5707 5710 5713 5716 5716 5718 5721 5723 5726 5729 5733 5737 5740 5744 5747 5750 5753 5757 5761 5764 5767 5770 5773 5775 5777 5780 5782 5784 5786 5788 5790 5792 5795 5797 5799 5801 5802 5804 5805 5806 5806 5807 5807
5687 5688 5690 5693 5694 5695 5697 5699 5703 5703 5705 5708 5710 5712 5714 5717 5721 5726 5729 5733 5737 5740 5744 5748 5752 5755 5759 5762 5765 5767 5769 5772 5774 5776 5778 5780 5782 5784 5787 5789 5791 5793 5795 5797 5798 5799 5799 5800 5800
5678 5679 5681 5684 5685 5685 5686 5689 5692 5692 5693 5696 5698 5700 5703 5706 5710 5714 5718 5722 5726 5730 5735 5739 5743 5747 5750 5754 5756 5759 5761 5764 5766 5768 5770 5772 5774 5776 5779 5781 5784 5785 5787 5789 5790 5792 5792 5792 5792
5669 5670 5671 5673 5675 5675 5676 5678 5681 5681 5682 5684 5687 5689 5692 5695 5699 5703 5707 5711 5716 5720 5725 5730 5734 5737 5741 5745 5748 5751 5753 5755 5757 5760 5762 5764 5766 5769 5771 5773 5775 5778 5780 5781 5782 5783 5784 5784 5784
5660 5660 5662 5664 5665 5665 5666 5667 5670 5671 5672 5674 5676 5678 5681 5684 5688 5692 5696 5700 5705 5709 5714 5719 5724 5728 5732 5735 5739 5742 5745 5747 5749 5752 5754 5756 5759 5761 5763 5765 5767 5770 5771 5772 5773 5775 5776 5776 5776
5651 5652 5654 5655 5655 5655 5656 5657 5660 5661 5662 5664 5666 5668 5670 5674 5677 5681 5685 5689 5694 5698 5703 5709 5714 5718 5722 5726 5730 5734 5736 5739 5742 5744 5747 5749 5751 5753 5755 5757 5759 5762 5763 5764 5765 5766 5767 5768 5767
5643 5644 5646 5647 5647 5647 5647 5648 5651 5652 5652 5654 5656 5658 5661 5663 5667 5671 5675 5678 5683 5688 5694 5699 5704 5708 5713 5717 5721 5724 5727 5730 5733 5736 5739 5741 5743 5745 5747 5749 5751 5753 5754 5755 5756 5757 5758 5759 5758
5636 5638 5639 5639 5639 5638 5639 5637 5642 5643 5644 5645 5647 5649 5652 5655 5658 5662 5665 5669 5674 5679 5684 5689 5695 5700 5704 5708 5711 5715 5718 5722 5725 5728 5731 5733 5735 5737 5739 5741 5743 5745 5745 5746 5747 5748 5749 5749 5749
5630 5632 5632 5632 5631 5631 5631 5630 5634 5636 5636 5637 5639 5641 5643 5647 5650 5653 5657 5661 5665 5669 5675 5681 5686 5690 5695 5699 5703 5707 5710 5713 5716 5719 5722 5724 5726 5728 5730 5732 5734 5735 5736 5737 5737 5738 5739 5739 5739
5624 5625 5626 5625 5624 5624 5625 5624 5626 5628 5630 5631 5632 5634 5636 5639 5642 5646 5650 5654 5657 5662 5667 5672 5677 5681 5685 5690 5694 5698 5701 5704 5707 5710 5712 5715 5718 5720 5722 5723 5724 5726 5727 5727 5728 5728 5729 5729 5729
5619 5620 5620 5618 5617 5618 5621 5618 5620 5623 5624 5625 5626 5628 5630 5633 5636 5639 5643 5647 5651 5655 5660 5665 5669 5673 5677 5681 5685 5689 5692 5695 5698 5700 5703 5706 5709 5711 5713 5714 5715 5716 5717 5717 5718 5718 5718 5718 5718
5614 5615 5615 5615 5614 5614 5615 5614 5617 5619 5619 5620 5621 5622 5624 5627 5631 5634 5637 5641 5646 5650 5653 5657 5661 5665 5669 5672 5676 5679 5683 5686 5689 5691 5694 5697 5699 5701 5703 5704 5705 5706 5707 5707 5707 5707 5707 5708 5708
5609 5609 5611 5611 5609 5609 5610 5611 5613 5614 5614 5615 5616 5617 5619 5622 5624 5628 5631 5635 5639 5643 5647 5650 5653 5657 5660 5664 5667 5670 5673 5676 5679 5682 5685 5687 5689 5692 5693 5694 5695 5696 5696 5696 5696 5696 5696 5696 5696
5605 5605 5605 5605 5604 5604 5606 5607 5608 5609 5610 5610 5611 5612 5614 5617 5619 5623 5626 5629 5633 5636 5640 5643 5646 5649 5652 5656 5658 5661 5664 5667 5670 5672 5675 5677 5679 5681 5683 5684 5684 5685 5686 5685 5685 5685 5685 5685 5685
5601 5601 5600 5600 5600 5600 5601 5605 5604 5604 5605 5606 5606 5608 5610 5612 5614 5617 5620 5623 5626 5629 5632 5635 5638 5641 5644 5646 5649 5651 5654 5656 5659 5662 5665 5667 5668 5670 5672 5674 5674 5674 5675 5675 5675 5675 5674 5674 5673
5595 5595 5596 5596 5596 5596 5596 5600 5599 5600 5600 5600 5601 5603 5605 5607 5609 5612 5614 5616 5619 5622 5625 5628 5630 5632 5635 5637 5639 5642 5644 5647 5649 5652 5655 5656 5658 5660 5661 5662 5663 5663 5663 5663 5663 5663 5663 5662 5662